Simultaneous Nadir Overpasses (SNOs) Predictions

Prediction of SNOs between GOES-17 and METOP-B Satellite Orbit:

Table of predicted SNOs for the next 14.0 days since TLE Epoch: 5/23/2025
Index Date Time (GOES-17) GOES-17 Lat,Lon METOP-B Lat,Lon Distance(km) Time Diff (sec)
1 05/24/2025 15:59:36 0.03,-104.45 -0.33,-102.79 188.08 80
2 05/26/2025 04:18:36 -0.02,-104.39 -0.71,-107.41 344.66 80
3 05/27/2025 03:55:17 -0.02,-104.39 0.41,-102.43 223.20 80
4 05/28/2025 16:14:08 0.01,-104.45 0.60,-107.01 292.54 80
5 05/29/2025 15:56:09 0.00,-104.45 -0.52,-102.03 275.39 80
6 05/31/2025 04:15:09 0.00,-104.39 -0.50,-106.65 257.17 80
7 06/01/2025 03:51:49 0.00,-104.39 0.63,-101.66 311.07 80
8 06/02/2025 16:10:41 -0.00,-104.46 0.38,-106.25 203.82 80
9 06/03/2025 15:52:40 -0.01,-104.46 -0.68,-101.25 364.88 80
10 06/05/2025 04:11:41 0.01,-104.41 -0.32,-105.87 166.56 80
11 06/06/2025 03:48:21 0.01,-104.42 0.81,-100.89 402.12 80
